Location: Asheville, NC
(35.6000°N, 82.5500°W)
Time: 18:40:46
(UTC-05:00)

Vanguard 3 - Pass Details

Date: 09 February 2018
Orbit: 508 x 3264 km, 33.3° (Epoch: 17 February)

Event Time Altitude Azimuth Distance (km) Brightness Sun altitude
Rises 01:23:46 0° 276° (W) 4,363 - -67.3°
Reaches altitude 10° 01:26:31 10° 268° (W) 3,708 - -67.0°
Maximum altitude 01:35:37 37° 205° (SSW) 3,027 - -66.1°
Drops below altitude 10° 01:49:53 10° 147° (SSE) 5,762 - -64.4°
Exits shadow 01:52:21 - 144° (SE) 6,323 11.6 -64.1°
Sets 01:55:31 0° 140° (SE) 7,037 11.9 -63.7°
